COSMOS 1479

Satellite information

Favourite Embed

Satellite Type and Status

PAYLOADIN ORBIT

Key statistics

Satellite COSMOS 1479 at a glance.

Uptime

15507

Days in orbit

Revolutions

≈ 12.5

Per day

Orbit

LEO

Low Earth Orbit

Inclination

74.0

Latest

Satellite identification and parameters

Extended collection of information and parameters for COSMOS 1479.

Object identification

Identified? True

Debris? False

Object name: COSMOS 1479

International designator: 1983-069G

Object number (NORAD): 14177

Object ID (CCSDS): 14177

Country: COMMONWEALTH OF INDEPENDENT STATES (CIS)

Current information (Y/N): Y

RCS size: MEDIUM

Orbital parameters

Period: 115.56 minutes

Inclination: 74.0266 deg

SMA: 7858.982 km

Apoapsis: 1499.448 km

Periapsis: 1462.245 km

RAAN: 1.458 deg

Eccentricy: 0.00236694

Argument of periapsis: 192.9525 deg

Mean anomaly: 280.8601 deg

Mean motion: 12.46101334 rev/day

Mean motion (dot): 0.0 rev/day2

B* drag term: 0.00010612645 1/REarth

Two-line elements (TLE)

Creation date: Dec. 18, 2025, 8:02 p.m.

Reference frame: TEME

Reference center: EARTH

Epoch: Dec. 18, 2025, 11:50 a.m. UTC

TLE line 0: 0 COSMOS 1479

TLE line 1: 1 14177U 83069G 25352.49323530 .00000000 00000-0 10613-3 0 9996

TLE line 2: 2 14177 74.0266 1.4580 0023669 192.9525 280.8601 12.46101334931197

Live tracking on map

Real-time ground track for satellite COSMOS 1479.

In-orbit conjunctions

A list of the most updated potential collisions computed for object COSMOS 1479.

Target Orbit TCA Probability of collision Miss distance Type
COSMOS 2499 DEB LEO 2025-07-03 08:18:07 0.0001156771 690.0 (m) DEBRIS
THORAD DELTA 1 DEB SSO 2024-11-18 22:13:00 0.0001157385 223.0 (m) DEBRIS
DELTA 1 DEB SSO 2024-06-21 05:54:34 0.0001193902 199.0 (m) DEBRIS

Associated space launch

Military communications satellites

COSMOS 1479 was lifted into orbit during the mission ‘Kosmos-3M | Strela-1M 265-272’, on board a Kosmos-3M space rocket.

The launch took place on July 6, 1983, 12:31 a.m. from 132/2.

For more information about the launch, click the button.

Launch to space Kosmos-3M | Strela-1M 265-272
Kosmos-3M | Strela-1M 265-272

Agency: N/A

Status: Launch Successful

Launch date: July 6, 1983, 12:31 a.m. UTC

Rocket: Kosmos-3M

Launch pad: 132/2

Location: Plesetsk Cosmodrome, Russian Federation

...

Latest news about this satellite

There are no fresh news available about this satellite. Check back as we update our databases every day.


Newsletter sign-up

Weekly statistics, charts and insights to help you stay on top of the space industry.